Location: Br�ttisellen
(47.4227°N, 8.6287°E)
Time: 16:29:51
(UTC+00:00)

STARLINK-1241 - Pass Details

Date: 09 April 2020
Orbit: 549 x 551 km, 53.0° (Epoch: 26 May)

Event Time Altitude Azimuth Distance (km) Brightness Sun altitude
Rises 19:54:48 0° 297° (WNW) 2,734 8.9 -17.5°
Reaches altitude 10° 19:57:02 10° 298° (WNW) 1,838 7.6 -17.8°
Maximum altitude 20:01:14 88° 28° (NNE) 560 3.5 -18.4°
Enters shadow 20:02:26 46° 117° (ESE) 752 3.8 -18.6°
